Location: Catstown
(52.4386°N, 7.2633°W)
Time: 22:02:42
(UTC+00:00)

Cosmos 1943 - Pass Details

Date: 18 September 2020
Orbit: 833 x 851 km, 71.0° (Epoch: 30 October)

Event Time Altitude Azimuth Distance (km) Brightness Sun altitude
Rises 19:42:59 0° 326° (NW) 3,401 7.2 -10.9°
Reaches altitude 10° 19:45:31 10° 320° (NW) 2,465 6.6 -11.2°
Maximum altitude 19:50:51 45° 249° (WSW) 1,136 4.3 -12.0°
Drops below altitude 10° 19:56:12 10° 179° (S) 2,460 5.4 -12.8°
Sets 19:58:43 0° 173° (S) 3,394 6.1 -13.1°
